Weather History for KFOZ - June, 2013

Change the Weather History Date:

Friday, June 14, 2013

  Actual Average Record
Temperature  
Mean Temperature 60 °F -  
Max Temperature 75 °F - - ()
Min Temperature 44 °F - - ()
Degree Days  
Heating Degree Days 6    
Growing Degree Days 10 (Base 50)    
Moisture  
Dew Point 51 °F    
Average Humidity 65    
Maximum Humidity 93    
Minimum Humidity 47    
Precipitation  
Precipitation 0.00 in - - ()
Sea Level Pressure  
Sea Level Pressure 30.02 in    
Wind  
Wind Speed 5 mph (SE)    
Max Wind Speed 14 mph    
Max Gust Speed 22 mph    
Visibility 10 miles    
Events Rain , Thunderstorm    
T = Trace of Precipitation, MM = Missing Value Source: NWS Daily Summary

Daily Weather History Graph

Daily Weather History Graph

Search for Another Location

Airport or City:

Trip Planner

Search our weather history database for the weather conditions in past years. The results will help you decide how hot, cold, wet, or windy it might be!

Date:

Astronomy

Jun. 14, 2013 Rise Set
Actual Time 5:15 AM CDT 9:14 PM CDT
Civil Twilight 4:34 AM CDT 9:55 PM CDT
Nautical Twilight 3:38 AM CDT 10:52 PM CDT
Astronomical Twilight 2:06 AM CDT 12:24 AM CDT
Moon 11:13 AM CDT (6/14) 12:00 AM CDT (6/14)
Length of Visible Light 17h 20m
Length of Day
15h 59m
Waxing Crescent, 30% of the Moon is Illuminated
Jun 14
Waxing Crescent
Jun 16
First Quarter
Jun 23
Full
Jun 29
Last Quarter
Jul 8
New

Hourly Weather History & Observations

Time (CDT) Temp. Dew Point Humidity Pressure Visibility Wind Dir Wind Speed Gust Speed Precip Events Conditions
12:13 AM 60.8 °F 46.4 °F 59% 30.11 in 10.0 mi SE 3.5 mph - N/A   Clear
12:33 AM 60.8 °F 46.4 °F 59% 30.11 in 10.0 mi SSE 3.5 mph - N/A   Clear
12:53 AM 57.2 °F 46.4 °F 67% 30.10 in 10.0 mi SE 3.5 mph - N/A   Clear
1:13 AM 57.2 °F 46.4 °F 67% 30.10 in 10.0 mi SSE 3.5 mph - N/A   Clear
1:33 AM 57.2 °F 46.4 °F 67% 30.10 in 10.0 mi SSE 3.5 mph - N/A   Clear
1:53 AM 57.2 °F 46.4 °F 67% 30.11 in 10.0 mi SSE 3.5 mph - N/A   Clear
2:13 AM 55.4 °F 46.4 °F 72% 30.11 in 10.0 mi SSE 3.5 mph - N/A   Clear
2:33 AM 53.6 °F 46.4 °F 77% 30.11 in 10.0 mi SE 3.5 mph - N/A   Clear
2:53 AM 53.6 °F 44.6 °F 72% 30.11 in 10.0 mi SE 3.5 mph - N/A   Clear
3:13 AM 53.6 °F 44.6 °F 72% 30.12 in 10.0 mi Calm Calm - N/A   Clear
3:33 AM 51.8 °F 44.6 °F 76% 30.11 in 10.0 mi SSE 3.5 mph - N/A   Clear
3:53 AM 51.8 °F 44.6 °F 76% 30.10 in 10.0 mi SSE 4.6 mph - N/A   Clear
4:13 AM 51.8 °F 44.6 °F 76% 30.09 in 10.0 mi Calm Calm - N/A   Clear
4:33 AM 48.2 °F 42.8 °F 82% 30.08 in 10.0 mi Calm Calm - N/A   Clear
4:53 AM 46.4 °F 44.6 °F 93% 30.08 in 10.0 mi Calm Calm - N/A   Clear
5:13 AM 46.4 °F 44.6 °F 93% 30.08 in 10.0 mi Calm Calm - N/A   Clear
5:33 AM 44.6 °F 42.8 °F 93% 30.09 in 10.0 mi Calm Calm - N/A   Clear
5:53 AM 46.4 °F 42.8 °F 87% 30.10 in 10.0 mi Calm Calm - N/A   Clear
6:13 AM 48.2 °F 46.4 °F 93% 30.09 in 10.0 mi SE 3.5 mph - N/A   Clear
6:33 AM 55.4 °F 48.2 °F 77% 30.09 in 10.0 mi SE 4.6 mph - N/A   Clear
6:53 AM 55.4 °F 48.2 °F 77% 30.09 in 10.0 mi South 5.8 mph - N/A   Clear
7:13 AM 57.2 °F 50.0 °F 77% 30.11 in 10.0 mi South 6.9 mph - N/A   Clear
7:33 AM 57.2 °F 50.0 °F 77% 30.10 in 10.0 mi SSE 3.5 mph - N/A   Clear
7:53 AM 60.8 °F 51.8 °F 72% 30.10 in 10.0 mi SSE 4.6 mph - N/A   Clear
8:13 AM 62.6 °F 51.8 °F 68% 30.11 in 10.0 mi SSE 5.8 mph - N/A   Clear
8:33 AM 62.6 °F 51.8 °F 68% 30.11 in 10.0 mi South 9.2 mph 17.3 mph N/A   Clear
8:53 AM 64.4 °F 53.6 °F 68% 30.11 in 10.0 mi South 8.1 mph - N/A   Clear
9:13 AM 64.4 °F 51.8 °F 64% 30.11 in 10.0 mi South 10.4 mph - N/A   Clear
9:33 AM 64.4 °F 53.6 °F 68% 30.11 in 10.0 mi SSE 6.9 mph - N/A   Clear
9:53 AM 66.2 °F 53.6 °F 64% 30.09 in 10.0 mi SE 8.1 mph - N/A   Clear
10:13 AM 68.0 °F 53.6 °F 60% 30.08 in 10.0 mi SSE 6.9 mph - N/A   Clear
10:33 AM 69.8 °F 53.6 °F 56% 30.08 in 10.0 mi SE 9.2 mph - N/A   Clear
10:53 AM 69.8 °F 53.6 °F 56% 30.07 in 10.0 mi South 6.9 mph - N/A   Clear
11:13 AM 69.8 °F 53.6 °F 56% 30.07 in 10.0 mi SE 10.4 mph - N/A   Clear
11:33 AM 69.8 °F 53.6 °F 56% 30.05 in 10.0 mi SE 8.1 mph - N/A   Clear
11:53 AM 69.8 °F 53.6 °F 56% 30.05 in 10.0 mi SSE 8.1 mph 16.1 mph N/A   Clear
12:13 PM 73.4 °F 53.6 °F 50% 30.05 in 10.0 mi SE 12.7 mph 17.3 mph N/A   Clear
12:33 PM 71.6 °F 53.6 °F 53% 30.05 in 10.0 mi South 12.7 mph 16.1 mph N/A   Clear
12:53 PM 71.6 °F 53.6 °F 53% 30.04 in 10.0 mi SE 9.2 mph - N/A   Clear
1:13 PM 71.6 °F 53.6 °F 53% 30.02 in 10.0 mi SE 12.7 mph 16.1 mph N/A   Clear
1:33 PM 75.2 °F 53.6 °F 47% 30.01 in 10.0 mi SE 12.7 mph 17.3 mph N/A   Clear
1:53 PM 71.6 °F 53.6 °F 53% 29.99 in 10.0 mi SSE 9.2 mph 16.1 mph N/A   Clear
2:13 PM 73.4 °F 53.6 °F 50% 29.98 in 10.0 mi SSE 13.8 mph 21.9 mph N/A   Clear
2:33 PM 73.4 °F 51.8 °F 47% 29.96 in 10.0 mi SE 12.7 mph 18.4 mph N/A   Clear
2:53 PM 73.4 °F 53.6 °F 50% 29.95 in 10.0 mi SSE 9.2 mph 18.4 mph N/A   Clear
3:13 PM 71.6 °F 51.8 °F 50% 29.99 in 10.0 mi South 11.5 mph 18.4 mph N/A   Scattered Clouds
3:33 PM 69.8 °F 53.6 °F 56% 29.97 in 10.0 mi SE 6.9 mph - N/A Rain Light Rain
3:53 PM 68.0 °F 57.2 °F 68% 29.97 in 10.0 mi South 10.4 mph - N/A Rain , Thunderstorm Rain
4:13 PM 66.2 °F 55.4 °F 68% 29.96 in 10.0 mi South 10.4 mph 16.1 mph N/A   Scattered Clouds
4:33 PM 66.2 °F 55.4 °F 68% 29.95 in 10.0 mi SE 6.9 mph - N/A Rain Light Rain
4:53 PM 68.0 °F 55.4 °F 64% 29.95 in 10.0 mi ESE 5.8 mph - N/A   Clear
5:13 PM 71.6 °F 55.4 °F 57% 29.94 in 10.0 mi East 4.6 mph - N/A   Clear
5:33 PM 71.6 °F 55.4 °F 57% 29.94 in 10.0 mi East 6.9 mph - N/A   Clear
5:53 PM 71.6 °F 55.4 °F 57% 29.96 in 10.0 mi SE 6.9 mph - N/A   Clear
6:13 PM 71.6 °F 57.2 °F 60% 29.94 in 10.0 mi SE 8.1 mph - N/A   Clear
6:33 PM 71.6 °F 57.2 °F 60% 29.93 in 10.0 mi SE 8.1 mph - N/A   Clear
6:53 PM 71.6 °F 55.4 °F 57% 29.92 in 10.0 mi SE 13.8 mph - N/A   Clear
7:13 PM 69.8 °F 55.4 °F 60% 29.93 in 10.0 mi SE 8.1 mph - N/A   Clear
7:33 PM 69.8 °F 55.4 °F 60% 29.92 in 10.0 mi SE 6.9 mph - N/A   Clear
7:53 PM 69.8 °F 55.4 °F 60% 29.93 in 10.0 mi SE 6.9 mph - N/A   Scattered Clouds
8:13 PM 69.8 °F 55.4 °F 60% 29.92 in 10.0 mi East 5.8 mph - N/A   Scattered Clouds
8:33 PM 68.0 °F 55.4 °F 64% 29.92 in 10.0 mi ESE 9.2 mph - N/A   Scattered Clouds
8:53 PM 66.2 °F 55.4 °F 68% 29.92 in 10.0 mi ESE 6.9 mph - N/A   Scattered Clouds
9:13 PM 66.2 °F 53.6 °F 64% 29.91 in 10.0 mi ESE 8.1 mph - N/A   Mostly Cloudy
9:33 PM 64.4 °F 53.6 °F 68% 29.91 in 10.0 mi SE 8.1 mph - N/A   Scattered Clouds
9:53 PM 64.4 °F 51.8 °F 64% 29.92 in 10.0 mi ESE 8.1 mph - N/A   Clear
10:13 PM 64.4 °F 51.8 °F 64% 29.91 in 10.0 mi SE 9.2 mph - N/A   Scattered Clouds
10:33 PM 62.6 °F 51.8 °F 68% 29.90 in 10.0 mi SE 9.2 mph - N/A   Scattered Clouds
10:53 PM 62.6 °F 51.8 °F 68% 29.90 in 10.0 mi ESE 5.8 mph - N/A Thunderstorm Clear
11:13 PM 62.6 °F 50.0 °F 63% 29.89 in 10.0 mi SE 5.8 mph - N/A Thunderstorm Scattered Clouds
11:33 PM 62.6 °F 48.2 °F 59% 29.91 in 10.0 mi Calm Calm - N/A Thunderstorm Thunderstorm
11:53 PM 60.8 °F 50.0 °F 68% 29.90 in 10.0 mi ESE 8.1 mph - N/A Rain Light Rain